Pottstown, PA

2:59 AM EST on December 13, 2017 (GMT -0500)
Pottstown Limerick

Weather History for KPTW - November, 2012

Change the Weather History Date:

Saturday, November 3, 2012

  Actual Average (KRDG) Record (KRDG)
Temperature  
Mean Temperature 44 °F -  
Max Temperature 46 °F 55 °F 79 °F (2003)
Min Temperature 41 °F 37 °F 25 °F (1980)
Degree Days  
Heating Degree Days 22    
Moisture  
Dew Point 30 °F    
Average Humidity 59    
Maximum Humidity 70    
Minimum Humidity 50    
Precipitation  
Precipitation 0.00 in - - ()
Sea Level Pressure  
Sea Level Pressure 29.93 in    
Wind  
Wind Speed 9 mph (NW)    
Max Wind Speed 16 mph    
Max Gust Speed 24 mph    
Visibility 10 miles    
Events      
Averages and records for this station are not official NWS values.
T = Trace of Precipitation, MM = Missing Value Source: NWS Daily Summary

Daily Weather History Graph

Daily Weather History Graph

Search for Another Location

Airport or City:

Trip Planner

Search our weather history database for the weather conditions in past years. The results will help you decide how hot, cold, wet, or windy it might be!

Date:

Astronomy

Nov. 03, 2012 Rise Set
Actual Time 7:34 AM EDT 5:56 PM EDT
Civil Twilight 7:06 AM EDT 6:24 PM EDT
Nautical Twilight 6:33 AM EDT 6:57 PM EDT
Astronomical Twilight 6:02 AM EDT 7:28 PM EDT
Moon 9:35 PM EDT (11/3) 11:37 AM EDT (11/3)
Length of Visible Light 11h 18m
Length of Day
10h 21m
Waning Gibbous, 80% of the Moon is Illuminated
Nov 3
Waning Gibbous
Nov 6
Last Quarter
Nov 13
New
Nov 20
First Quarter
Nov 28
Full

Hourly Weather History & Observations

Time (EDT) Temp. Windchill Dew Point Humidity Pressure Visibility Wind Dir Wind Speed Gust Speed Precip Events Conditions
12:54 AM 43.0 °F 38.8 °F 32.0 °F 65% 29.85 in 10.0 mi WNW 6.9 mph - N/A   Overcast
1:54 AM 43.0 °F 39.5 °F 33.1 °F 68% 29.85 in 10.0 mi WNW 5.8 mph - N/A   Overcast
2:54 AM 42.1 °F 37.1 °F 33.1 °F 70% 29.85 in 10.0 mi West 8.1 mph - N/A   Overcast
3:54 AM 42.1 °F 36.1 °F 33.1 °F 70% 29.85 in 10.0 mi WNW 10.4 mph - N/A   Overcast
4:54 AM 42.1 °F 38.4 °F 33.1 °F 70% 29.86 in 10.0 mi Variable 5.8 mph - N/A   Overcast
5:54 AM 42.1 °F 37.1 °F 30.9 °F 65% 29.88 in 10.0 mi WNW 8.1 mph - N/A   Overcast
6:54 AM 42.1 °F 37.7 °F 30.0 °F 62% 29.90 in 10.0 mi Variable 6.9 mph - N/A   Overcast
7:54 AM 41.0 °F 37.1 °F 30.0 °F 65% 29.92 in 10.0 mi WNW 5.8 mph - N/A   Overcast
8:54 AM 42.1 °F 36.6 °F 30.0 °F 62% 29.94 in 10.0 mi West 9.2 mph - N/A   Overcast
9:54 AM 44.1 °F 38.1 °F 30.9 °F 60% 29.94 in 10.0 mi WNW 11.5 mph 18.4 mph N/A   Overcast
10:54 AM 44.1 °F 38.1 °F 30.0 °F 58% 29.95 in 10.0 mi NW 11.5 mph 20.7 mph N/A   Overcast
11:54 AM 45.0 °F 38.5 °F 30.0 °F 56% 29.95 in 10.0 mi WNW 13.8 mph 21.9 mph N/A   Overcast
12:54 PM 46.0 °F 39.6 °F 30.0 °F 54% 29.93 in 10.0 mi WNW 15.0 mph 20.7 mph N/A   Overcast
1:54 PM 46.0 °F 39.9 °F 30.0 °F 54% 29.93 in 10.0 mi WNW 13.8 mph 21.9 mph N/A   Overcast
2:54 PM 46.9 °F - 30.0 °F 52% 29.93 in 10.0 mi NW 13.8 mph 20.7 mph N/A   Overcast
3:54 PM 46.9 °F - 30.0 °F 52% 29.94 in 10.0 mi NW 10.4 mph 19.6 mph N/A   Overcast
4:54 PM 46.0 °F 39.9 °F 30.0 °F 54% 29.96 in 10.0 mi WNW 13.8 mph 20.7 mph N/A   Overcast
5:54 PM 46.0 °F 42.5 °F 28.0 °F 50% 29.96 in 10.0 mi NW 6.9 mph 16.1 mph N/A   Overcast
6:54 PM 45.0 °F 39.7 °F 28.9 °F 53% 29.97 in 10.0 mi NW 10.4 mph - N/A   Overcast
7:54 PM 45.0 °F 37.9 °F 28.0 °F 52% 29.98 in 10.0 mi NNW 16.1 mph 24.2 mph N/A   Overcast
8:54 PM 44.1 °F 38.1 °F 27.0 °F 51% 29.99 in 10.0 mi NW 11.5 mph - N/A   Overcast
9:54 PM 44.1 °F 39.5 °F 28.0 °F 53% 30.01 in 10.0 mi NW 8.1 mph 17.3 mph N/A   Overcast
10:54 PM 43.0 °F 38.8 °F 28.0 °F 56% 30.02 in 10.0 mi NNW 6.9 mph - N/A   Overcast
11:54 PM 43.0 °F 40.3 °F 28.0 °F 56% 30.03 in 10.0 mi NW 4.6 mph - N/A   Overcast